Theta_e
290 292 295 294 294 293 291 290 287 289 289 293 295 298 305 306 309 312 314 315 314 314 314 316 318 320 321 321 322 322 321 320 318 318 316 314 312 311 310 311 310 310 309 309
291 295 296 293 295 294 293 293 291 292 291 296 299 305 306 308 311 312 314 315 314 314 315 315 316 317 321 321 322 321 321 321 320 318 315 312 311 310 309 310 309 310 310 309
285 292 291 287 292 293 292 293 292 288 292 303 305 307 307 309 312 312 314 314 313 313 313 314 315 318 318 321 322 320 320 322 320 317 315 313 311 311 309 309 310 309 309 310
285 288 281 292 295 296 294 295 301 301 303 305 306 306 309 311 310 311 313 313 313 313 313 314 315 318 320 321 321 320 319 320 320 317 316 313 311 310 310 309 309 310 310 310
283 283 287 292 295 293 292 292 301 302 302 304 305 306 306 308 310 311 312 314 314 314 314 314 315 317 319 320 322 320 319 319 319 317 316 314 312 311 311 310 309 309 310 309
283 281 280 288 297 303 299 287 302 303 301 302 302 297 299 306 308 308 308 312 314 314 314 313 314 316 316 319 320 319 319 319 320 318 316 314 314 312 312 311 311 312 310 308
282 282 285 293 297 303 286 288 302 303 302 302 301 302 304 307 307 308 307 306 307 309 306 308 313 314 313 313 314 319 320 320 319 318 317 317 315 314 313 312 312 310 310 309
282 281 280 296 299 293 294 300 302 301 301 300 302 304 304 304 304 304 303 304 305 302 302 304 309 310 310 311 315 318 320 321 320 319 318 318 315 314 313 312 310 309 309 308
287 285 292 296 300 303 303 301 302 301 302 302 300 300 301 300 299 300 302 302 301 301 301 302 304 306 307 311 314 317 317 320 321 320 320 319 315 313 312 312 311 310 308 307
288 293 294 294 296 300 303 303 307 307 306 306 303 304 304 302 302 302 302 301 300 301 301 301 303 304 305 309 314 316 316 317 320 320 318 317 316 314 312 311 311 309 307 306
288 291 293 294 294 294 295 296 297 301 305 305 305 304 304 303 303 303 302 301 301 300 300 301 302 303 305 309 313 315 317 317 318 319 315 314 313 311 313 313 311 310 309 308
288 291 290 290 295 297 295 294 294 294 295 301 304 303 304 302 303 303 301 301 300 300 299 300 301 302 304 309 313 314 314 315 317 316 315 314 304 301 294 299 300 298 298 303
289 290 290 292 293 295 293 294 294 294 295 296 297 299 301 300 300 301 300 300 299 299 300 301 300 301 305 309 313 313 314 314 317 314 313 307 306 306 304 296 294 294 294 295
290 289 288 290 289 292 293 295 296 296 296 296 296 296 295 296 297 298 297 299 300 300 301 301 301 301 305 309 312 313 314 307 315 315 312 309 308 309 308 305 301 296 292 293
290 290 291 291 291 292 293 293 293 293 294 294 295 295 295 295 294 296 297 298 298 299 299 300 300 301 305 310 312 313 314 314 316 315 311 308 306 306 304 300 299 295 294 292
291 291 290 290 291 292 292 292 292 292 293 294 294 295 296 296 296 296 297 297 296 296 298 299 300 302 305 310 311 313 313 303 307 312 307 307 306 303 299 297 296 294 295 295
288 289 290 290 291 292 293 294 295 295 296 296 297 298 297 297 296 296 296 297 297 297 299 299 300 302 305 310 311 312 312 314 306 308 307 306 304 301 299 297 295 295 295 294
294 294 293 293 294 295 296 297 298 298 297 299 299 299 298 297 297 297 298 299 297 297 299 300 302 303 305 309 311 312 313 315 312 309 308 307 303 301 299 298 297 295 294 292
295 295 296 296 297 296 296 297 298 299 299 299 299 298 299 299 298 298 299 298 298 298 300 303 301 302 306 308 309 312 314 316 313 312 310 302 303 301 300 298 297 295 295 295
295 296 296 296 298 297 297 298 298 298 299 300 299 298 298 299 299 299 299 298 300 301 303 304 305 306 307 307 298 312 314 316 314 312 308 306 303 302 300 294 294 294 295 294
295 296 296 296 296 297 296 296 296 296 299 300 299 298 299 300 300 300 297 296 300 302 302 299 304 308 310 307 310 308 311 315 314 309 307 305 303 300 297 295 294 294 293 292
294 294 295 295 294 294 296 297 298 299 300 300 300 300 299 298 299 299 300 299 301 296 301 305 308 299 306 299 311 313 313 314 310 308 306 302 299 297 295 293 293 292 292 291
294 294 294 294 294 295 297 298 299 298 298 299 299 299 298 298 300 297 296 299 301 299 303 306 296 290 289 312 310 308 308 307 306 305 303 300 297 294 293 293 292 291 290 290
294 295 295 296 297 297 296 298 299 299 300 301 301 301 300 299 298 299 301 296 291 293 302 304 299 289 290 311 308 308 303 300 299 299 296 291 294 292 292 292 290 290 289 289
295 296 296 296 296 296 297 299 299 299 300 300 300 301 302 302 300 300 300 301 293 295 302 292 289 291 309 307 302 300 298 296 295 295 293 292 292 291 291 290 290 290 290 290
296 296 297 297 297 297 298 298 298 299 300 299 301 302 304 303 303 302 304 302 304 298 305 299 302 306 305 302 300 296 294 293 293 292 292 291 291 290 290 290 290 290 289 289
297 295 297 297 298 299 299 300 299 299 300 300 300 307 308 307 304 303 299 303 304 303 301 305 306 302 298 296 295 295 294 292 291 292 292 292 291 291 290 289 289 289 289 288
Wind_Speed
3 4 3 4 5 5 6 6 6 8 9 12 7 6 8 3 3 5 5 5 6 6 6 7 9 7 4 4 6 6 8 9 11 9 9 8 8 9 8 8 9 9 8 6
3 2 5 4 7 7 7 6 8 8 11 6 5 3 6 7 6 5 4 5 6 7 9 10 10 8 7 6 8 8 9 11 8 9 9 9 10 9 8 7 8 8 8 8
5 1 2 5 10 10 5 4 5 7 9 2 1 4 4 6 6 6 3 1 3 6 6 7 9 9 9 8 4 7 10 9 8 8 10 10 10 8 10 11 6 7 8 8
4 2 5 7 4 3 7 4 5 5 7 4 5 3 5 4 4 5 3 2 4 5 6 6 7 8 7 7 6 7 8 8 7 9 10 10 10 11 8 7 9 8 9 7
4 5 6 5 5 5 7 7 5 5 2 5 5 3 3 2 1 1 1 1 0 1 2 5 7 8 6 6 4 4 6 6 6 9 9 9 12 11 9 7 6 5 4 4
2 4 7 6 3 6 2 5 5 6 6 6 3 4 5 2 2 3 3 2 4 5 3 5 6 6 6 7 5 4 5 6 6 7 9 11 11 12 8 8 8 7 6 5
3 5 8 5 8 4 2 7 2 5 5 4 3 5 3 3 2 3 3 4 3 4 3 5 5 6 7 7 6 7 5 5 6 7 9 9 8 7 9 7 6 4 3 3
2 2 8 3 2 1 4 3 2 2 1 1 3 3 3 4 4 5 5 3 2 4 5 5 5 4 5 6 7 5 5 6 6 8 8 6 9 8 11 12 11 9 8 4
8 7 4 3 2 1 4 3 2 1 3 3 4 4 2 2 5 6 8 7 6 6 7 5 3 4 5 5 5 7 4 5 7 8 8 7 9 10 9 11 8 7 4 3
1 2 3 1 1 2 3 3 3 4 6 6 5 6 5 3 3 4 6 7 5 6 9 8 5 3 5 7 5 5 7 6 6 6 7 6 6 6 6 7 6 7 5 4
3 4 4 4 2 1 3 5 5 5 5 7 6 8 7 7 7 7 7 8 6 6 7 8 8 7 6 6 4 3 5 6 4 4 5 5 4 3 7 6 8 7 6 6
11 7 5 6 5 3 4 7 9 8 7 7 8 9 8 7 7 7 8 7 7 8 7 9 7 8 7 5 4 3 5 5 3 2 4 4 4 4 12 8 10 6 4 5
6 4 7 6 7 8 11 11 10 8 9 9 8 8 6 7 7 10 8 8 9 11 11 8 7 8 9 6 4 4 4 5 3 3 3 4 5 6 7 6 8 6 8 8
7 2 5 6 8 8 7 12 10 8 9 8 10 7 8 9 8 8 9 12 10 10 9 8 8 11 10 6 5 6 5 8 5 4 5 6 7 6 6 6 5 3 6 6
11 8 12 10 7 10 9 7 9 10 10 9 7 9 7 8 8 10 10 9 8 9 10 9 10 14 7 6 7 7 5 3 5 3 4 4 5 5 6 7 5 7 5 7
8 9 9 8 12 12 8 8 8 11 7 8 8 7 8 7 7 7 7 7 6 10 12 10 11 12 8 6 7 5 5 7 5 4 5 6 6 5 6 6 7 6 6 5
4 6 4 6 6 7 7 7 8 9 9 7 10 10 7 7 7 7 8 8 9 12 11 10 14 11 9 7 7 5 4 4 7 5 6 6 7 6 5 6 7 5 5 4
7 7 7 7 7 9 11 11 10 11 10 12 11 10 9 9 11 11 9 8 6 9 10 12 12 12 10 7 7 6 5 5 6 7 7 8 7 8 7 6 6 6 5 3
8 10 9 9 10 11 12 13 13 14 13 13 12 13 12 12 11 11 8 7 8 9 14 9 10 8 6 8 7 5 6 6 6 6 7 9 6 6 7 6 7 6 6 6
9 8 10 13 12 14 16 13 15 16 16 15 13 13 13 12 11 10 9 11 9 8 9 6 8 7 5 6 8 5 7 8 8 7 8 6 5 6 7 7 8 8 7 7
13 14 16 16 17 16 15 16 17 17 15 13 15 15 13 11 9 10 8 7 10 9 8 6 8 3 1 2 3 7 8 7 9 13 11 8 5 6 8 8 8 8 8 7
14 16 16 17 16 18 17 16 15 15 16 13 9 10 14 14 12 11 11 10 7 8 4 4 4 0 3 4 3 7 12 10 13 12 10 7 7 7 8 9 9 8 8 8
14 14 15 16 17 17 17 16 14 15 15 15 15 14 13 11 9 8 9 7 8 7 4 5 3 7 5 5 4 8 10 16 14 11 9 8 7 9 9 9 9 9 8 7
16 16 16 16 15 14 15 15 13 13 13 12 12 11 9 7 7 8 7 7 8 6 6 4 3 7 9 7 6 7 8 9 10 9 10 10 9 9 10 10 9 8 8 8
15 15 15 14 13 11 13 12 11 10 10 9 9 9 11 9 9 5 7 7 10 10 8 7 10 10 7 8 8 4 8 9 10 10 10 10 10 11 10 9 9 8 8 7
14 10 10 13 11 10 9 9 8 6 6 6 7 7 7 6 7 6 5 6 7 8 7 8 8 8 10 11 9 8 10 10 11 10 12 11 12 10 10 10 8 8 7 5
11 11 9 9 8 8 7 7 6 7 5 6 7 5 0 4 7 8 8 6 6 8 9 10 12 14 12 12 12 11 11 10 10 11 11 11 10 10 10 9 8 7 6 5
Wind_Direction
260 225 193 213 225 196 192 211 181 250 203 251 261 249 233 178 133 103 67 33 11 13 7 350 348 337 276 229 204 182 186 196 201 187 180 170 184 192 174 181 184 183 189 202
303 258 230 255 268 254 225 242 243 260 273 263 279 200 150 145 132 99 75 40 8 8 5 358 345 332 309 252 219 185 204 212 193 179 179 181 179 176 168 190 187 183 195 193
249 357 331 295 230 227 219 190 191 229 239 318 29 87 108 135 136 121 105 47 19 25 9 345 342 331 320 285 250 207 213 220 195 187 191 190 185 196 194 184 167 192 204 198
214 20 247 247 297 204 205 214 222 266 266 227 158 111 96 74 132 124 117 62 31 20 356 343 330 333 323 322 257 226 223 219 203 193 199 186 182 186 192 165 162 193 214 206
175 203 295 312 262 192 184 248 211 235 175 136 132 86 38 45 42 124 32 336 331 16 342 340 338 332 336 350 327 267 243 220 206 201 195 192 192 187 175 157 199 176 215 227
131 208 235 242 310 12 97 278 206 179 170 149 140 145 242 246 316 7 12 17 0 354 347 343 336 340 359 356 348 280 254 248 224 202 203 196 196 184 175 181 191 196 200 211
173 239 285 251 291 297 161 246 164 153 171 171 185 200 239 144 282 276 273 308 0 4 338 317 334 355 352 343 354 318 266 228 217 209 216 212 195 189 174 184 147 189 174 252
110 217 275 340 345 209 227 347 5 2 314 180 234 250 252 235 245 251 256 287 326 348 331 316 331 16 339 325 311 312 301 274 241 229 222 212 183 173 169 172 169 171 172 206
175 217 249 283 248 203 186 159 175 204 269 244 200 226 215 284 312 320 311 311 321 311 309 311 305 346 327 288 319 320 322 294 269 249 238 212 189 182 180 175 171 160 168 190
37 225 199 200 62 65 24 354 303 239 185 185 267 305 274 281 260 276 282 268 249 286 295 304 306 328 291 298 304 324 325 321 309 265 244 197 194 187 169 150 157 144 167 206
258 281 271 255 224 156 355 347 322 287 252 266 270 256 221 233 242 243 255 274 266 260 267 277 313 314 290 292 300 297 297 294 306 281 227 187 148 185 170 171 165 168 178 183
258 215 221 222 230 262 272 261 255 259 271 241 221 238 255 259 255 250 251 257 262 262 266 268 275 284 290 285 259 272 284 286 276 215 228 184 146 90 43 103 133 134 133 147
259 237 221 244 269 271 270 268 270 255 241 251 265 229 233 240 245 249 251 256 251 251 255 256 259 268 275 275 240 256 252 284 272 207 185 177 166 162 146 51 76 138 181 184
232 228 280 233 249 264 244 259 264 256 249 243 250 252 235 235 255 252 254 254 256 257 255 257 265 263 268 273 229 244 239 252 256 196 203 203 186 182 140 150 145 127 46 96
272 236 242 251 286 268 248 259 271 266 262 267 250 240 242 240 235 248 259 263 264 269 269 261 261 273 251 240 222 239 234 241 258 204 182 180 152 159 138 127 145 130 114 80
265 265 276 250 251 257 266 256 239 264 270 262 256 256 245 235 245 249 260 266 257 272 269 265 263 261 255 216 217 226 234 235 249 176 162 169 149 149 133 139 151 148 144 139
253 287 267 270 265 272 255 253 239 251 257 247 256 259 256 256 254 253 244 244 244 255 261 259 266 269 254 228 199 222 204 216 173 160 169 166 145 138 151 159 147 149 137 140
236 263 260 248 264 275 280 271 267 261 252 250 251 250 250 250 253 260 253 252 256 263 260 257 253 256 247 223 203 203 181 185 179 177 172 165 164 154 153 154 146 149 133 118
230 242 256 251 245 252 258 256 255 255 257 250 246 245 240 245 246 249 252 249 254 264 271 265 255 238 231 230 195 196 178 173 183 185 175 132 142 149 147 157 147 137 139 133
267 256 256 259 260 265 269 264 273 268 264 254 246 246 246 241 241 247 247 252 249 249 265 268 269 249 226 237 193 209 187 183 182 155 142 130 141 161 136 138 130 129 129 129
270 275 273 272 284 282 279 279 275 271 264 248 241 244 242 241 234 238 238 249 261 247 243 255 252 241 175 201 192 229 214 187 171 148 140 148 150 143 132 129 123 126 131 123
275 280 279 284 281 281 276 272 269 269 271 256 229 243 259 260 250 233 227 230 260 235 229 243 261 126 106 90 335 241 200 169 139 136 128 130 146 136 130 120 122 124 121 107
284 278 280 280 276 275 277 272 268 271 270 263 259 254 244 240 231 221 234 218 229 236 205 230 224 111 222 113 86 67 103 126 124 128 131 141 138 131 124 123 117 120 111 113
276 277 275 276 277 274 274 276 275 269 260 258 254 248 241 233 228 228 237 197 200 187 207 221 180 146 234 109 95 104 81 87 107 117 115 114 118 116 112 117 111 109 110 106
274 276 276 280 280 274 278 277 277 272 269 264 256 245 234 224 224 212 208 223 213 196 212 179 151 164 155 117 99 103 110 112 115 117 119 116 114 110 108 108 110 109 100 98
278 275 276 277 274 278 277 279 274 272 263 267 265 255 235 212 208 211 219 213 172 162 173 145 155 163 124 113 123 108 107 108 108 105 110 107 103 103 104 100 96 96 104 109
273 269 273 274 272 267 264 264 266 271 253 253 267 275 198 112 118 112 101 96 115 152 148 144 135 121 110 114 114 110 104 98 98 107 97 99 95 94 93 94 100 108 105 104